Regional Weather Roundup
Issued by NWS

Home | Current Version | Previous Version | Text Only | Print | Product List | Glossary On
Versions: 1 2 3 4 5 6 7 8 9 10 11 12 13 14 15 16 17 18 19 20 21 22 23 24 25 26 27 28
000
ASUS45 KBOU 260507
RWRCO

WEATHER ROUNDUP FOR COLORADO
NATIONAL WEATHER SERVICE DENVER/BOULDER CO
1100 PM MDT MON JUL 25 2016

NOTE: "FAIR" INDICATES FEW OR NO CLOUDS BELOW 12000 FEET WITH NO
SIGNIFICANT WEATHER AND/OR OBSTRUCTIONS TO VISIBILITY.

COZ001>005-013-030-031-260600-
...NORTHWEST COLORADO...

CITY           SKY/WX    TMP DP  RH WIND       PRES   REMARKS
CRAIG          FAIR      68  43  40 SW6       30.24S
HAYDEN         FAIR      73  34  23 SE8       30.27F
MEEKER         FAIR      67  45  45 NE7       30.27R
MOUNT WERNER   NOT AVBL
STEAMBOAT SPGS FAIR      73  34  24 N13G25    30.32R
WALDEN         FAIR      57  32  38 E10       30.41S
$$

COZ006>008-011-260600-
...WEST CENTRAL VALLEYS...

CITY           SKY/WX    TMP DP  RH WIND       PRES   REMARKS
GRAND JUNCTION FAIR      85  40  20 E12       30.14F
MONTROSE       FAIR      70  46  42 CALM      30.25R
EAGLE          FAIR      70  37  30 CALM      30.32R
RIFLE          FAIR      76  41  28 E3        30.20R
DELTA          FAIR      81  41  23 CALM      30.18F
NUCLA          FAIR     N/A N/A N/A W3        30.28S
$$

COZ017>023-064>068-260600-
...SOUTHWEST COLORADO...

CITY           SKY/WX    TMP DP  RH WIND       PRES   REMARKS
DURANGO        FAIR      69  49  48 N7        30.32R
CORTEZ         MOCLDY    74  48  39 E6        30.25R
PAGOSA SPRINGS FAIR      69  43  39 CALM      30.41F
TELLURIDE      MOCLDY    60  44  55 CALM      30.53S
WOLF CREEK PAS CLOUDY    52  37  58 SW7       30.77S
$$

COZ009-010-012-014-032>034-037-058>063-260600-
...CENTRAL COLORADO...

CITY           SKY/WX    TMP DP  RH WIND       PRES   REMARKS
ASPEN          FAIR      63  40  42 S6        30.39R
BUENA VISTA    FAIR      67  43  41 SE16      30.44R
COPPER MTN     FAIR      59  23  25 CALM      30.76S
BERTHOUD PASS  FAIR      50  36  57 CALM      30.79S
COTTONWOOD PAS FAIR      66  25  20 CALM      30.58S
GUNNISON       FAIR      61  46  59 N3        30.43S
KREMMLING      FAIR      59  41  51 CALM      30.38R
LEADVILLE      FAIR      51  33  50 NE6       30.56R
MONARCH PASS   CLOUDY    50  36  57 NE16      30.85R
SALIDA         FAIR      70  47  43 SE18G26   30.47R
SUNLIGHT       FAIR      59  34  38 CALM      30.66S
WILKERSON PASS MOCLDY    54  37  54 S10G22    30.72S
$$

COZ069>075-260600-
...SAN LUIS VALLEY/SANGRE DE CRISTO MOUNTAINS...

CITY           SKY/WX    TMP DP  RH WIND       PRES   REMARKS
ALAMOSA        FAIR      66  49  54 E8        30.39R
LA VETA PASS   CLOUDY    54  48  82 N9        30.64R
SAGUACHE       MOCLDY    70  37  30 N6        30.41S
$$

COZ035-036-038>040-260600-
...NORTHERN COLORADO FRONT RANGE...

CITY           SKY/WX    TMP DP  RH WIND       PRES   REMARKS
DENVER INTL AP MOCLDY    77  47  34 S22G33    30.17R
DMNS CITY PARK   N/A     77  45  31 SW8G15    30.18S
AURORA         MOCLDY    75  49  39 S21G29    30.20R
FRONT RANGE AP NOT AVBL
ERIE MUNI ARPT FAIR      77  43  29 S10G18    30.14S
BOULDER MUN AP FAIR      73  48  40 S6        30.15S
CENTENNIAL     MOCLDY    74  46  36 S29G37    30.22R
BROOMFIELD     NOT AVBL
LONGMONT       FAIR      71  56  59 CALM      30.15S
$$

COZ041-046-047-076>085-087-088-260600-
...PIKES PEAK/PALMER DIVIDE AND SOUTHERN FOOTHILLS...

CITY           SKY/WX    TMP DP  RH WIND       PRES   REMARKS
COLO. SPRINGS  CLOUDY    64  55  72 E8        30.37R
A. F. ACADEMY  MOCLDY    70  48  46 S17       30.37R
SCHRIEVER AFB  NOT AVBL
ELLICOTT       FAIR       1  32 100 CALM      30.34R
FALCON         MOCLDY    62  52  68 SW13      30.40F
FORT CARSON    MOCLDY    66  54  66 S9        30.34R
LIMON          NOT AVBL
MONUMENT HILL  FAIR      64  46  52 SW23G36   30.34F
TRINIDAD       NOT AVBL
$$

COZ042>045-048>051-090-091-260600-
...NORTHEAST COLORADO...

CITY           SKY/WX    TMP DP  RH WIND       PRES   REMARKS
GREELEY ARPT   FAIR      70  54  56 SE8       30.14S
AKRON          FAIR      69  61  75 SE15      30.18R
BURLINGTON     FAIR      72  63  73 SE14      30.18S
WRAY           FAIR      72  63  73 SE7       30.16R
STERLING       FAIR      72  63  73 S10G18    30.12R
HOLYOKE        FAIR      70  64  83 W6        30.16R
FORT MORGAN    FAIR      70  59  69 SE8       30.17R
$$

COZ086-089-092>099-260600-
...SOUTHEAST COLORADO...

CITY           SKY/WX    TMP DP  RH WIND       PRES   REMARKS
PUEBLO         FAIR      70  61  73 SW3       30.26R
LA JUNTA       CLOUDY    72  55  55 NE24      30.13F
LAMAR          MOCLDY    76  63  64 S7        30.15F
SPRINGFIELD      N/A     73  63  70 W6        30.22R
$$




USA.gov is the U.S. government's official web portal to all federal, state and local government web resources and services.